Hourly Weather Bolshie Gory

Today, 20 June, Sunday

Time Temperature Precipitation Wind Pressure Humidity
00:00 +17°C° 0 mm 2 mps 757 mmHg 73%
01:00 +16°C° 0 mm 2 mps 757 mmHg 75%
02:00 +16°C° 0 mm 2 mps 757 mmHg 76%
03:00 +17°C° 0 mm 2 mps 757 mmHg 75%
04:00 +18°C° 0 mm 2 mps 757 mmHg 74%
05:00 +19°C° 0 mm 2 mps 757 mmHg 72%
06:00 +21°C° 0 mm 2 mps 757 mmHg 67%
07:00 +23°C° 0 mm 2 mps 757 mmHg 61%
08:00 +25°C° 0 mm 2 mps 757 mmHg 56%
09:00 +26°C° 0 mm 3 mps 757 mmHg 52%
10:00 +27°C° 0 mm 3 mps 756 mmHg 48%
11:00 +28°C° 0 mm 3 mps 756 mmHg 44%
12:00 +29°C° 0 mm 3 mps 756 mmHg 43%
13:00 +29°C° 0 mm 3 mps 756 mmHg 42%
14:00 +30°C° 0 mm 4 mps 756 mmHg 41%
15:00 +30°C° 0 mm 3 mps 756 mmHg 41%
16:00 +29°C° 0 mm 3 mps 756 mmHg 42%
17:00 +29°C° 0 mm 3 mps 755 mmHg 42%
18:00 +27°C° 0 mm 3 mps 755 mmHg 51%
19:00 +25°C° 0 mm 2 mps 755 mmHg 60%
20:00 +23°C° 0 mm 2 mps 755 mmHg 69%
21:00 +21°C° 0 mm 2 mps 755 mmHg 70%
22:00 +20°C° 0 mm 2 mps 755 mmHg 71%
23:00 +19°C° 0 mm 2 mps 755 mmHg 72%

Tomorrow, 21 June, Monday

Time Temperature Precipitation Wind Pressure Humidity
00:00 +18°C° 0 mm 2 mps 755 mmHg 73%
01:00 +18°C° 0 mm 2 mps 756 mmHg 74%
02:00 +18°C° 0 mm 1 mps 756 mmHg 75%
03:00 +19°C° 0 mm 1 mps 756 mmHg 74%
04:00 +20°C° 0 mm 1 mps 756 mmHg 73%
05:00 +21°C° 0 mm 1 mps 756 mmHg 72%
06:00 +23°C° 0 mm 1 mps 756 mmHg 65%
07:00 +25°C° 0 mm 2 mps 756 mmHg 59%
08:00 +27°C° 0 mm 2 mps 756 mmHg 53%
09:00 +28°C° 0 mm 3 mps 756 mmHg 50%
10:00 +29°C° 0 mm 3 mps 756 mmHg 48%
11:00 +30°C° 0 mm 4 mps 756 mmHg 45%
12:00 +32°C° 0 mm 4 mps 756 mmHg 44%
13:00 +32°C° 0 mm 4 mps 756 mmHg 42%
14:00 +33°C° 0 mm 3 mps 756 mmHg 40%
15:00 +33°C° 0 mm 3 mps 756 mmHg 40%
16:00 +33°C° 0 mm 3 mps 755 mmHg 40%
17:00 +33°C° 0 mm 3 mps 755 mmHg 40%
18:00 +30°C° 0.2 mm 3 mps 755 mmHg 49%
19:00 +27°C° 0.2 mm 2 mps 755 mmHg 59%
20:00 +25°C° 0.2 mm 2 mps 755 mmHg 68%
21:00 +24°C° 0.1 mm 2 mps 755 mmHg 72%
22:00 +21°C° 0.1 mm 2 mps 755 mmHg 76%
23:00 +21°C° 0.1 mm 1 mps 755 mmHg 80%

Day after tomorrow, 22 June, Tuesday

Time Temperature Precipitation Wind Pressure Humidity
00:00 +21°C° 0 mm 1 mps 756 mmHg 82%
01:00 +20°C° 0 mm 2 mps 756 mmHg 84%
02:00 +19°C° 0 mm 2 mps 756 mmHg 86%
03:00 +20°C° 0 mm 2 mps 756 mmHg 84%
04:00 +21°C° 0 mm 2 mps 756 mmHg 83%
05:00 +22°C° 0 mm 1 mps 757 mmHg 82%
06:00 +24°C° 0 mm 2 mps 757 mmHg 74%
07:00 +26°C° 0 mm 2 mps 757 mmHg 66%
08:00 +28°C° 0 mm 2 mps 757 mmHg 58%
09:00 +29°C° 0 mm 3 mps 757 mmHg 55%
10:00 +30°C° 0 mm 3 mps 757 mmHg 51%
11:00 +31°C° 0 mm 3 mps 757 mmHg 47%
12:00 +33°C° 0 mm 3 mps 757 mmHg 45%
13:00 +33°C° 0 mm 3 mps 756 mmHg 43%
14:00 +34°C° 0 mm 3 mps 756 mmHg 41%
15:00 +34°C° 0 mm 3 mps 756 mmHg 40%
16:00 +34°C° 0 mm 3 mps 755 mmHg 39%
17:00 +34°C° 0 mm 3 mps 755 mmHg 38%
18:00 +31°C° 0 mm 3 mps 755 mmHg 45%
19:00 +29°C° 0 mm 3 mps 755 mmHg 52%
20:00 +27°C° 0 mm 2 mps 754 mmHg 59%
21:00 +26°C° 0 mm 2 mps 755 mmHg 61%
22:00 +24°C° 0 mm 2 mps 755 mmHg 64%
23:00 +23°C° 0 mm 2 mps 755 mmHg 66%

23 June, Wednesday

Time Temperature Precipitation Wind Pressure Humidity
00:00 +21°C° 0 mm 2 mps 755 mmHg 70%
01:00 +21°C° 0 mm 3 mps 755 mmHg 74%
02:00 +20°C° 0 mm 3 mps 755 mmHg 78%
03:00 +20°C° 0.1 mm 3 mps 755 mmHg 78%
04:00 +20°C° 0.1 mm 3 mps 755 mmHg 78%
05:00 +20°C° 0.1 mm 2 mps 755 mmHg 78%
06:00 +22°C° 0.1 mm 3 mps 755 mmHg 73%
07:00 +24°C° 0.1 mm 3 mps 755 mmHg 69%
08:00 +26°C° 0.1 mm 3 mps 755 mmHg 64%
09:00 +27°C° 0 mm 3 mps 756 mmHg 62%
10:00 +28°C° 0 mm 3 mps 756 mmHg 61%
11:00 +28°C° 0 mm 3 mps 756 mmHg 59%
12:00 +29°C° 0 mm 4 mps 756 mmHg 56%
13:00 +30°C° 0 mm 4 mps 756 mmHg 53%
14:00 +32°C° 0 mm 4 mps 756 mmHg 50%
15:00 +30°C° 0 mm 3 mps 756 mmHg 50%
16:00 +30°C° 0 mm 3 mps 756 mmHg 51%
17:00 +30°C° 0 mm 3 mps 755 mmHg 51%
18:00 +28°C° 0.3 mm 3 mps 756 mmHg 61%
19:00 +25°C° 0.3 mm 3 mps 756 mmHg 72%
20:00 +22°C° 0.3 mm 3 mps 756 mmHg 83%
21:00 +21°C° 0.1 mm 3 mps 756 mmHg 87%
22:00 +20°C° 0.1 mm 2 mps 756 mmHg 92%
23:00 +19°C° 0.1 mm 2 mps 756 mmHg 96%

24 June, Thursday

Time Temperature Precipitation Wind Pressure Humidity
00:00 +19°C° 0 mm 2 mps 756 mmHg 96%
01:00 +19°C° 0 mm 1 mps 756 mmHg 96%
02:00 +19°C° 0 mm 1 mps 756 mmHg 96%
03:00 +20°C° 0 mm 1 mps 756 mmHg 91%
04:00 +20°C° 0 mm 1 mps 756 mmHg 86%
05:00 +21°C° 0 mm 1 mps 756 mmHg 81%
06:00 +23°C° 0 mm 1 mps 756 mmHg 72%
07:00 +24°C° 0 mm 2 mps 756 mmHg 64%
08:00 +26°C° 0 mm 2 mps 756 mmHg 55%
09:00 +27°C° 0 mm 2 mps 756 mmHg 50%
10:00 +29°C° 0 mm 2 mps 756 mmHg 45%
11:00 +30°C° 0 mm 2 mps 756 mmHg 41%
12:00 +30°C° 0 mm 2 mps 756 mmHg 40%
13:00 +30°C° 0 mm 2 mps 756 mmHg 40%
14:00 +31°C° 0 mm 2 mps 756 mmHg 39%
15:00 +31°C° 0 mm 2 mps 756 mmHg 40%
16:00 +31°C° 0 mm 1 mps 755 mmHg 41%
17:00 +31°C° 0 mm 1 mps 755 mmHg 42%
18:00 +28°C° 1 mm 2 mps 755 mmHg 57%
19:00 +25°C° 1 mm 3 mps 755 mmHg 71%
20:00 +21°C° 1 mm 4 mps 756 mmHg 85%
21:00 +20°C° 0.3 mm 3 mps 755 mmHg 89%
22:00 +19°C° 0.3 mm 2 mps 755 mmHg 93%
23:00 +19°C° 0.3 mm 1 mps 754 mmHg 97%

25 June, Friday

Time Temperature Precipitation Wind Pressure Humidity
00:00 +19°C° 0.1 mm 1 mps 754 mmHg 97%
01:00 +19°C° 0.1 mm 1 mps 755 mmHg 98%
02:00 +18°C° 0.1 mm 2 mps 755 mmHg 98%
03:00 +19°C° 0 mm 1 mps 754 mmHg 97%
04:00 +19°C° 0 mm 1 mps 754 mmHg 96%
05:00 +20°C° 0 mm 1 mps 754 mmHg 95%
06:00 +21°C° 0 mm 1 mps 754 mmHg 89%
07:00 +23°C° 0 mm 1 mps 754 mmHg 82%
08:00 +24°C° 0 mm 1 mps 754 mmHg 76%
09:00 +25°C° 0 mm 1 mps 754 mmHg 69%
10:00 +27°C° 0 mm 2 mps 754 mmHg 62%
11:00 +28°C° 0 mm 2 mps 754 mmHg 55%
12:00 +27°C° 0 mm 2 mps 754 mmHg 61%
13:00 +26°C° 0 mm 2 mps 753 mmHg 66%
14:00 +25°C° 0 mm 2 mps 753 mmHg 72%
15:00 +26°C° 0 mm 1 mps 753 mmHg 66%
16:00 +27°C° 0 mm 1 mps 753 mmHg 60%
17:00 +28°C° 0 mm 1 mps 752 mmHg 55%
18:00 +27°C° 0.1 mm 1 mps 752 mmHg 60%
19:00 +26°C° 0.1 mm 1 mps 752 mmHg 66%
20:00 +23°C° 0.1 mm 0 mps 751 mmHg 72%
21:00 +24°C° 0.5 mm 1 mps 751 mmHg 79%
22:00 +21°C° 0.5 mm 2 mps 751 mmHg 86%
23:00 +20°C° 0.5 mm 2 mps 751 mmHg 93%
Show more